Time,TemperatureF,DewpointF,PressureIn,WindDirection,WindDirectionDegrees,WindSpeedMPH,WindSpeedGustMPH,Humidity,HourlyPrecipIn,Conditions,Clouds,dailyrainin,SoftwareType,DateUTC
2013-03-12 00:07:00,36.8,33.0,29.67,West,279,8.0,20.0,86,0.00,,,0.00,weatherlink.com 1.10,2013-03-12 04:07:00,
2013-03-12 00:22:00,36.7,33.0,29.68,WSW,257,11.0,15.0,86,0.00,,,0.00,weatherlink.com 1.10,2013-03-12 04:22:00,
2013-03-12 00:37:00,36.7,33.0,29.68,WSW,248,7.0,16.0,86,0.00,,,0.00,weatherlink.com 1.10,2013-03-12 04:37:00,
2013-03-12 00:52:00,36.6,33.0,29.69,WSW,246,11.0,15.0,87,0.00,,,0.00,weatherlink.com 1.10,2013-03-12 04:52:00,
2013-03-12 01:07:00,36.6,33.0,29.69,SW,225,10.0,21.0,86,0.00,,,0.00,weatherlink.com 1.10,2013-03-12 05:07:00,
2013-03-12 01:22:00,36.6,33.0,29.69,West,263,12.0,21.0,85,0.00,,,0.00,weatherlink.com 1.10,2013-03-12 05:22:00,
2013-03-12 01:37:00,36.3,32.0,29.69,West,267,10.0,15.0,84,0.00,,,0.00,weatherlink.com 1.10,2013-03-12 05:37:00,
2013-03-12 01:52:00,36.2,32.0,29.70,West,267,7.0,17.0,84,0.00,,,0.00,weatherlink.com 1.10,2013-03-12 05:52:00,
2013-03-12 02:07:00,35.9,32.0,29.70,WNW,291,7.0,18.0,84,0.00,,,0.00,weatherlink.com 1.10,2013-03-12 06:07:00,
2013-03-12 02:22:00,35.7,32.0,29.71,West,281,4.0,16.0,85,0.00,,,0.00,weatherlink.com 1.10,2013-03-12 06:22:00,
2013-03-12 02:37:00,35.5,31.0,29.71,WSW,251,7.0,18.0,85,0.00,,,0.00,weatherlink.com 1.10,2013-03-12 06:37:00,
2013-03-12 02:52:00,35.2,31.0,29.72,West,267,3.0,16.0,85,0.00,,,0.00,weatherlink.com 1.10,2013-03-12 06:52:00,
2013-03-12 03:07:00,34.8,31.0,29.72,West,266,10.0,17.0,87,0.00,,,0.00,weatherlink.com 1.10,2013-03-12 07:07:00,
2013-03-12 03:22:00,34.7,31.0,29.73,WNW,292,4.0,15.0,87,0.00,,,0.00,weatherlink.com 1.10,2013-03-12 07:22:00,
2013-03-12 03:37:00,34.5,31.0,29.73,West,267,13.0,19.0,88,0.00,,,0.00,weatherlink.com 1.10,2013-03-12 07:37:00,
2013-03-12 03:52:00,34.3,31.0,29.73,West,272,3.0,11.0,89,0.00,,,0.00,weatherlink.com 1.10,2013-03-12 07:52:00,
2013-03-12 04:07:00,34.2,31.0,29.73,WSW,256,6.0,12.0,89,0.00,,,0.00,weatherlink.com 1.10,2013-03-12 08:07:00,
2013-03-12 04:23:00,34.2,32.0,29.73,WSW,244,3.0,11.0,90,0.00,,,0.00,weatherlink.com 1.10,2013-03-12 08:23:00,
2013-03-12 04:38:00,34.1,32.0,29.73,West,262,4.0,11.0,90,0.00,,,0.00,weatherlink.com 1.10,2013-03-12 08:38:00,
2013-03-12 04:53:00,33.9,32.0,29.74,WSW,247,7.0,13.0,91,0.00,,,0.00,weatherlink.com 1.10,2013-03-12 08:53:00,
2013-03-12 05:08:00,33.8,32.0,29.74,West,261,7.0,12.0,91,0.00,,,0.00,weatherlink.com 1.10,2013-03-12 09:08:00,
2013-03-12 05:23:00,33.8,31.0,29.75,WNW,301,5.0,16.0,90,0.00,,,0.00,weatherlink.com 1.10,2013-03-12 09:23:00,
2013-03-12 05:38:00,33.9,31.0,29.75,WSW,254,7.0,13.0,89,0.00,,,0.00,weatherlink.com 1.10,2013-03-12 09:38:00,
2013-03-12 05:53:00,33.7,31.0,29.76,West,275,4.0,11.0,90,0.00,,,0.00,weatherlink.com 1.10,2013-03-12 09:53:00,
2013-03-12 06:08:00,33.3,31.0,29.77,West,266,7.0,12.0,92,0.00,,,0.00,weatherlink.com 1.10,2013-03-12 10:08:00,
2013-03-12 06:38:00,33.7,31.0,29.78,WSW,237,8.0,13.0,89,0.00,,,0.00,weatherlink.com 1.10,2013-03-12 10:38:00,
2013-03-12 06:53:00,33.9,31.0,29.78,WNW,291,3.0,20.0,87,0.00,,,0.00,weatherlink.com 1.10,2013-03-12 10:53:00,
2013-03-12 07:08:00,33.7,30.0,29.78,WNW,286,5.0,13.0,86,0.00,,,0.00,weatherlink.com 1.10,2013-03-12 11:08:00,
2013-03-12 07:23:00,33.7,30.0,29.79,WSW,252,6.0,13.0,85,0.00,,,0.00,weatherlink.com 1.10,2013-03-12 11:23:00,
2013-03-12 07:38:00,33.6,30.0,29.79,WNW,295,6.0,9.0,85,0.00,,,0.00,weatherlink.com 1.10,2013-03-12 11:38:00,
2013-03-12 07:53:00,33.5,30.0,29.79,West,272,5.0,11.0,85,0.00,,,0.00,weatherlink.com 1.10,2013-03-12 11:53:00,
2013-03-12 08:08:00,33.5,30.0,29.80,West,259,7.0,9.0,86,0.00,,,0.00,weatherlink.com 1.10,2013-03-12 12:08:00,
2013-03-12 08:23:00,33.3,30.0,29.80,WSW,255,4.0,11.0,87,0.00,,,0.00,weatherlink.com 1.10,2013-03-12 12:23:00,
2013-03-12 08:38:00,33.0,30.0,29.81,West,259,4.0,11.0,89,0.00,,,0.00,weatherlink.com 1.10,2013-03-12 12:38:00,
2013-03-12 08:53:00,33.0,30.0,29.81,WSW,243,7.0,11.0,90,0.00,,,0.00,weatherlink.com 1.10,2013-03-12 12:53:00,
2013-03-12 09:08:00,33.2,31.0,29.82,West,275,2.0,13.0,90,0.00,,,0.00,weatherlink.com 1.10,2013-03-12 13:08:00,
2013-03-12 09:23:00,33.4,31.0,29.82,West,275,4.0,14.0,89,0.00,,,0.00,weatherlink.com 1.10,2013-03-12 13:23:00,
2013-03-12 09:38:00,33.5,30.0,29.82,WSW,247,4.0,16.0,88,0.00,,,0.00,weatherlink.com 1.10,2013-03-12 13:38:00,
2013-03-12 09:53:00,33.8,30.0,29.83,West,265,3.0,13.0,87,0.00,,,0.00,weatherlink.com 1.10,2013-03-12 13:53:00,
2013-03-12 10:08:00,33.7,30.0,29.83,West,275,9.0,14.0,87,0.00,,,0.00,weatherlink.com 1.10,2013-03-12 14:08:00,
2013-03-12 10:23:00,33.7,30.0,29.84,WNW,302,6.0,18.0,86,0.00,,,0.00,weatherlink.com 1.10,2013-03-12 14:23:00,
2013-03-12 10:38:00,34.1,30.0,29.84,West,273,9.0,15.0,85,0.00,,,0.00,weatherlink.com 1.10,2013-03-12 14:38:00,
2013-03-12 10:53:00,34.0,30.0,29.84,WNW,292,10.0,16.0,86,0.00,,,0.00,weatherlink.com 1.10,2013-03-12 14:53:00,
2013-03-12 11:08:00,34.0,30.0,29.84,West,261,6.0,13.0,86,0.00,,,0.00,weatherlink.com 1.10,2013-03-12 15:08:00,
2013-03-12 11:23:00,33.5,30.0,29.84,WNW,297,6.0,13.0,88,0.00,,,0.00,weatherlink.com 1.10,2013-03-12 15:23:00,
2013-03-12 11:38:00,34.2,31.0,29.85,WNW,287,8.0,13.0,87,0.00,,,0.00,weatherlink.com 1.10,2013-03-12 15:38:00,
2013-03-12 11:53:00,34.1,30.0,29.85,WSW,249,10.0,18.0,85,0.00,,,0.00,weatherlink.com 1.10,2013-03-12 15:53:00,
2013-03-12 12:08:00,34.9,31.0,29.85,West,270,3.0,16.0,84,0.00,,,0.00,weatherlink.com 1.10,2013-03-12 16:08:00,
2013-03-12 12:23:00,34.8,30.0,29.84,West,268,11.0,19.0,83,0.00,,,0.00,weatherlink.com 1.10,2013-03-12 16:23:00,
2013-03-12 12:38:00,34.9,31.0,29.85,WSW,246,7.0,15.0,85,0.00,,,0.00,weatherlink.com 1.10,2013-03-12 16:38:00,
2013-03-12 12:53:00,34.6,31.0,29.85,WSW,244,12.0,15.0,85,0.00,,,0.00,weatherlink.com 1.10,2013-03-12 16:53:00,
2013-03-12 13:08:00,33.8,30.0,29.86,WNW,289,6.0,12.0,86,0.00,,,0.00,weatherlink.com 1.10,2013-03-12 17:08:00,
2013-03-12 13:24:00,34.2,31.0,29.86,WSW,255,7.0,13.0,86,0.00,,,0.00,weatherlink.com 1.10,2013-03-12 17:24:00,
2013-03-12 13:39:00,33.3,30.0,29.86,West,267,5.0,19.0,89,0.00,,,0.00,weatherlink.com 1.10,2013-03-12 17:39:00,
2013-03-12 13:54:00,34.8,31.0,29.86,West,271,10.0,21.0,85,0.00,,,0.00,weatherlink.com 1.10,2013-03-12 17:54:00,
2013-03-12 14:09:00,33.5,30.0,29.86,West,274,10.0,20.0,86,0.00,,,0.00,weatherlink.com 1.10,2013-03-12 18:09:00,
2013-03-12 14:24:00,33.2,30.0,29.86,WSW,250,14.0,15.0,86,0.00,,,0.00,weatherlink.com 1.10,2013-03-12 18:24:00,
2013-03-12 14:39:00,33.0,29.0,29.87,West,276,16.0,22.0,85,0.00,,,0.00,weatherlink.com 1.10,2013-03-12 18:39:00,
2013-03-12 14:54:00,34.2,30.0,29.86,West,272,12.0,15.0,83,0.00,,,0.00,weatherlink.com 1.10,2013-03-12 18:54:00,
2013-03-12 15:09:00,33.9,29.0,29.85,SW,234,14.0,20.0,81,0.00,,,0.00,weatherlink.com 1.10,2013-03-12 19:09:00,
2013-03-12 15:24:00,34.4,28.0,29.85,West,263,7.0,16.0,78,0.00,,,0.00,weatherlink.com 1.10,2013-03-12 19:24:00,
2013-03-12 15:39:00,34.6,28.0,29.85,West,275,5.0,15.0,78,0.00,,,0.00,weatherlink.com 1.10,2013-03-12 19:39:00,
2013-03-12 15:54:00,34.5,28.0,29.86,WSW,245,11.0,17.0,76,0.00,,,0.00,weatherlink.com 1.10,2013-03-12 19:54:00,
2013-03-12 16:09:00,34.2,27.0,29.86,WSW,255,8.0,21.0,76,0.00,,,0.00,weatherlink.com 1.10,2013-03-12 20:09:00,
2013-03-12 16:24:00,34.3,28.0,29.86,West,265,8.0,15.0,78,0.00,,,0.00,weatherlink.com 1.10,2013-03-12 20:24:00,
2013-03-12 16:39:00,34.0,28.0,29.87,West,269,6.0,14.0,78,0.00,,,0.00,weatherlink.com 1.10,2013-03-12 20:39:00,
2013-03-12 16:54:00,33.8,27.0,29.87,West,264,7.0,15.0,77,0.00,,,0.00,weatherlink.com 1.10,2013-03-12 20:54:00,
2013-03-12 17:09:00,33.8,27.0,29.87,West,269,6.0,13.0,77,0.00,,,0.00,weatherlink.com 1.10,2013-03-12 21:09:00,
2013-03-12 17:39:00,33.7,27.0,29.89,WNW,300,10.0,15.0,76,0.00,,,0.00,weatherlink.com 1.10,2013-03-12 21:39:00,
2013-03-12 17:54:00,33.7,27.0,29.89,WNW,294,8.0,16.0,75,0.00,,,0.00,weatherlink.com 1.10,2013-03-12 21:54:00,
2013-03-12 18:09:00,33.4,27.0,29.89,West,269,11.0,20.0,76,0.00,,,0.00,weatherlink.com 1.10,2013-03-12 22:09:00,
2013-03-12 18:39:00,33.5,26.0,29.89,West,262,5.0,16.0,75,0.00,,,0.00,weatherlink.com 1.10,2013-03-12 22:39:00,
2013-03-12 19:09:00,33.0,27.0,29.90,West,281,6.0,16.0,79,0.00,,,0.00,weatherlink.com 1.10,2013-03-12 23:09:00,
2013-03-12 19:24:00,32.8,28.0,29.90,West,263,5.0,12.0,81,0.00,,,0.00,weatherlink.com 1.10,2013-03-12 23:24:00,
2013-03-12 19:39:00,32.4,28.0,29.90,WNW,294,5.0,12.0,84,0.00,,,0.00,weatherlink.com 1.10,2013-03-12 23:39:00,
2013-03-12 19:54:00,31.9,29.0,29.91,WNW,284,7.0,12.0,87,0.00,,,0.00,weatherlink.com 1.10,2013-03-12 23:54:00,
2013-03-12 20:09:00,31.6,29.0,29.91,WNW,293,4.0,16.0,89,0.00,,,0.00,weatherlink.com 1.10,2013-03-13 00:09:00,
2013-03-12 20:24:00,31.4,29.0,29.92,WNW,289,4.0,12.0,90,0.00,,,0.00,weatherlink.com 1.10,2013-03-13 00:24:00,
2013-03-12 20:39:00,31.0,28.0,29.91,West,281,3.0,9.0,89,0.00,,,0.00,weatherlink.com 1.10,2013-03-13 00:39:00,
2013-03-12 20:54:00,30.9,27.0,29.92,WSW,257,6.0,8.0,86,0.00,,,0.00,weatherlink.com 1.10,2013-03-13 00:54:00,
2013-03-12 21:09:00,30.8,27.0,29.92,WSW,256,7.0,8.0,85,0.00,,,0.00,weatherlink.com 1.10,2013-03-13 01:09:00,
2013-03-12 21:24:00,30.8,27.0,29.93,West,265,2.0,12.0,84,0.00,,,0.00,weatherlink.com 1.10,2013-03-13 01:24:00,
2013-03-12 21:39:00,30.6,26.0,29.93,WNW,290,3.0,9.0,83,0.00,,,0.00,weatherlink.com 1.10,2013-03-13 01:39:00,
2013-03-12 21:54:00,30.5,26.0,29.93,WSW,246,3.0,6.0,83,0.00,,,0.00,weatherlink.com 1.10,2013-03-13 01:54:00,
2013-03-12 22:09:00,30.3,26.0,29.92,SW,232,3.0,5.0,84,0.00,,,0.00,weatherlink.com 1.10,2013-03-13 02:09:00,
2013-03-12 22:24:00,29.9,26.0,29.92,SW,221,4.0,6.0,86,0.00,,,0.00,weatherlink.com 1.10,2013-03-13 02:24:00,
2013-03-12 22:39:00,29.7,27.0,29.92,SW,227,3.0,6.0,88,0.00,,,0.00,weatherlink.com 1.10,2013-03-13 02:39:00,
2013-03-12 22:54:00,29.5,27.0,29.92,SW,236,3.0,6.0,89,0.00,,,0.00,weatherlink.com 1.10,2013-03-13 02:54:00,
2013-03-12 23:09:00,29.7,27.0,29.92,SW,227,1.0,5.0,89,0.00,,,0.00,weatherlink.com 1.10,2013-03-13 03:09:00,
2013-03-12 23:24:00,30.0,27.0,29.92,SW,232,4.0,8.0,89,0.00,,,0.00,weatherlink.com 1.10,2013-03-13 03:24:00,
2013-03-12 23:39:00,30.4,27.0,29.91,SSW,207,3.0,7.0,88,0.00,,,0.00,weatherlink.com 1.10,2013-03-13 03:39:00,
2013-03-12 23:54:00,30.8,27.0,29.91,West,261,7.0,9.0,87,0.00,,,0.00,weatherlink.com 1.10,2013-03-13 03:54:00,